Patterson, LA

2:13 AM CST on December 13, 2019 (GMT -0600)
Williams Memorial

Weather History for KPTN - November, 2019

Change the Weather History Date:

Thursday, November 14, 2019

  Actual Average Record
Temperature  
Mean Temperature 49 °F -  
Max Temperature 52 °F 69 °F 80 °F (2005)
Min Temperature 46 °F 51 °F 30 °F (2014)
Degree Days  
Heating Degree Days 16    
Moisture  
Dew Point 42 °F    
Average Humidity 80    
Maximum Humidity 86    
Minimum Humidity 69    
Precipitation  
Precipitation 0.03 in - - ()
Sea Level Pressure  
Sea Level Pressure 30.24 in    
Wind  
Wind Speed 5 mph (NNE)    
Max Wind Speed 10 mph    
Max Gust Speed -    
Visibility 10 miles    
Events Rain    
Averages and records for this station are not official NWS values.
T = Trace of Precipitation, MM = Missing Value Source: NWS Daily Summary

Daily Weather History Graph

Daily Weather History Graph

Search for Another Location

Airport or City:

Astronomy

Nov. 14, 2019 Rise Set
Actual Time 6:28 AM CST 5:10 PM CST
Civil Twilight 6:03 AM CST 5:35 PM CST
Nautical Twilight 5:34 AM CST 6:04 PM CST
Astronomical Twilight 5:06 AM CST 6:32 PM CST
Moon 7:02 PM CST (11/14) 8:19 AM CST (11/14)
Length of Visible Light 11h 31m
Length of Day
10h 41m
Waning Gibbous, 95% of the Moon is Illuminated
Nov 14
Waning Gibbous
Nov 19
Last Quarter
Nov 26
New
Dec 4
First Quarter
Dec 11
Full

Hourly Weather History & Observations

Time (CST) Temp. Windchill Dew Point Humidity Pressure Visibility Wind Dir Wind Speed Gust Speed Precip Events Conditions
12:56 AM 46.0 °F - 41.0 °F 83% 30.21 in 10.0 mi Calm Calm - N/A   Overcast
1:49 AM 46.4 °F 44.3 °F 39.2 °F 76% 30.21 in 10.0 mi North 4.6 mph - N/A   Overcast
2:56 AM 46.0 °F 43.1 °F 37.9 °F 73% 30.20 in 10.0 mi North 5.8 mph - 0.00 in   Overcast
4:56 AM 46.9 °F - 37.9 °F 71% 30.20 in 10.0 mi North 6.9 mph - N/A   Overcast
5:56 AM 46.0 °F 42.5 °F 39.0 °F 76% 30.22 in 10.0 mi NE 6.9 mph - 0.00 in Rain Light Rain
6:56 AM 46.0 °F 43.1 °F 42.1 °F 86% 30.24 in 10.0 mi North 5.8 mph - 0.00 in Rain Light Rain
7:56 AM 46.0 °F 43.9 °F 42.1 °F 86% 30.25 in 10.0 mi North 4.6 mph - 0.01 in Rain Light Rain
10:56 AM 51.1 °F - 42.1 °F 71% 30.26 in 10.0 mi NNE 4.6 mph - N/A   Overcast
11:56 AM 52.0 °F - 42.1 °F 69% 30.25 in 10.0 mi NNE 3.5 mph - 0.00 in Rain Light Rain
12:56 PM 51.1 °F - 46.0 °F 83% 30.21 in 10.0 mi NE 10.4 mph - 0.01 in Rain Light Rain
1:56 PM 50.0 °F - 46.0 °F 86% 30.19 in 10.0 mi NNE 10.4 mph - 0.01 in Rain Light Rain
2:56 PM 51.1 °F - 45.0 °F 80% 30.22 in 10.0 mi North 8.1 mph - 0.00 in   Clear
3:56 PM 50.0 °F - 45.0 °F 83% 30.22 in 10.0 mi NE 8.1 mph - 0.00 in   Overcast
4:56 PM 50.0 °F - 45.0 °F 83% 30.22 in 10.0 mi NNE 8.1 mph - N/A   Overcast
5:56 PM 48.9 °F - 43.0 °F 80% 30.24 in 10.0 mi North 9.2 mph - N/A   Overcast
7:56 PM 48.0 °F - 41.0 °F 77% 30.28 in 10.0 mi NNE 9.2 mph - N/A   Scattered Clouds
8:56 PM 46.9 °F - 41.0 °F 80% 30.29 in 10.0 mi NNE 9.2 mph - N/A   Clear
9:56 PM 46.0 °F 41.9 °F 42.1 °F 86% 30.29 in 10.0 mi North 8.1 mph - N/A   Mostly Cloudy
10:56 PM 46.0 °F 41.9 °F 42.1 °F 86% 30.28 in 10.0 mi North 8.1 mph - N/A   Scattered Clouds
11:56 PM 46.0 °F 41.9 °F 41.0 °F 83% 30.28 in 10.0 mi NNE 8.1 mph - N/A   Overcast